| time (UTC) | temp F | wind direction | speed knots | gust knots | rain 1hr in | rain 24hr in | rain mn in | humidity % | barometer mb |
| 20260906005826 | 53 | 271 | 7.8 | 13.9 | 0.00 | 0.00 | 0.00 | 100 | 947.1 |
| 20260906005426 | 53 | 272 | 9.6 | 16.5 | 0.00 | 0.00 | 0.00 | 100 | 947.1 |
| 20260906005026 | 53 | 272 | 7.8 | 11.3 | 0.00 | 0.00 | 0.00 | 100 | 947.1 |
| 20260906004623 | 53 | 271 | 9.6 | 13.9 | 0.00 | 0.00 | 0.00 | 100 | 947.1 |
| 20260906004223 | 53 | 270 | 10.4 | 13.9 | 0.00 | 0.00 | 0.00 | 100 | 947.1 |
| 20260906003823 | 54 | 273 | 8.7 | 12.2 | 0.00 | 0.00 | 0.00 | 100 | 947.2 |
| 20260906003624 | 54 | 283 | 7.0 | 10.4 | 0.00 | 0.00 | 0.00 | ||
| 20260906003423 | 54 | 283 | 7.0 | 10.4 | 0.00 | 0.00 | 0.00 | 100 | 947.3 |
| 20260906003024 | 54 | 281 | 7.0 | 10.4 | 0.00 | 0.00 | 0.00 | ||
| 20260906002620 | 55 | 273 | 10.4 | 15.6 | 0.00 | 0.00 | 0.00 | 100 | 947.2 |
| 20260906002220 | 55 | 274 | 10.4 | 14.8 | 0.00 | 0.00 | 0.00 | 100 | 947.2 |
| 20260906001820 | 55 | 271 | 7.8 | 13.0 | 0.00 | 0.00 | 0.00 | 100 | 947.2 |
| 20260906001420 | 55 | 269 | 6.1 | 11.3 | 0.00 | 0.00 | 0.00 | 100 | 947.2 |
| 20260906001020 | 56 | 277 | 5.2 | 8.7 | 0.00 | 0.00 | 0.00 | 100 | 947.2 |
| 20260906000617 | 56 | 274 | 7.8 | 11.3 | 0.00 | 0.00 | 0.00 | 100 | 947.2 |
| 20260906000219 | 56 | 273 | 8.7 | 14.8 | 0.00 | 0.00 | 0.00 | 100 | 947.1 |
| 20260905235817 | 56 | 276 | 6.1 | 10.4 | 0.00 | 0.00 | 0.00 | 100 | 947.1 |
| 20260905235417 | 56 | 273 | 10.4 | 16.5 | 0.00 | 0.00 | 0.00 | 100 | 947.1 |
| 20260905235017 | 56 | 276 | 5.2 | 8.7 | 0.00 | 0.00 | 0.00 | 100 | 947.2 |
| 20260905234614 | 57 | 275 | 7.8 | 12.2 | 0.00 | 0.00 | 0.00 | 100 | 947.1 |
| 20260905234214 | 57 | 278 | 8.7 | 13.9 | 0.00 | 0.00 | 0.00 | 100 | 947.0 |
| 20260905233815 | 57 | 276 | 9.6 | 17.4 | 0.00 | 0.00 | 0.00 | 100 | 947.0 |
| 20260905233415 | 57 | 286 | 7.8 | 18.2 | 0.00 | 0.00 | 0.00 | 100 | 946.9 |
| 20260905233014 | 57 | 286 | 9.6 | 20.9 | 0.00 | 0.00 | 0.00 | 100 | 946.9 |
| 20260905232611 | 57 | 291 | 8.7 | 17.4 | 0.00 | 0.00 | 0.00 | 100 | 946.8 |
| 20260905232208 | 57 | 273 | 7.0 | 13.9 | 0.00 | 0.00 | 0.00 | 100 | 946.8 |
| 20260905231808 | 57 | 280 | 7.0 | 10.4 | 0.00 | 0.00 | 0.00 | 100 | 946.7 |
| 20260905231357 | 57 | 275 | 7.0 | 12.2 | 0.00 | 0.00 | 0.00 | 100 | 946.7 |
| 20260905230957 | 57 | 274 | 7.0 | 9.6 | 0.00 | 0.00 | 0.00 | 100 | 946.6 |
| 20260905230554 | 57 | 279 | 6.1 | 11.3 | 0.00 | 0.00 | 0.00 | 100 | 946.6 |
| 20260905230154 | 57 | 279 | 7.0 | 13.0 | 0.00 | 0.00 | 0.00 | 100 | 946.6 |
| 20260905225754 | 57 | 280 | 7.0 | 11.3 | 0.00 | 0.00 | 0.00 | 100 | 946.7 |
| 20260905225354 | 57 | 275 | 8.7 | 13.0 | 0.00 | 0.00 | 0.00 | 100 | 946.7 |
| 20260905224954 | 57 | 277 | 7.8 | 12.2 | 0.00 | 0.00 | 0.00 | 100 | 946.7 |
| 20260905224551 | 57 | 273 | 8.7 | 13.0 | 0.00 | 0.00 | 0.00 | 100 | 946.6 |
| 20260905224151 | 57 | 276 | 8.7 | 11.3 | 0.00 | 0.00 | 0.00 | 100 | 946.5 |
| 20260905223751 | 57 | 275 | 7.8 | 11.3 | 0.00 | 0.00 | 0.00 | 100 | 946.6 |
| 20260905223351 | 57 | 279 | 8.7 | 13.0 | 0.00 | 0.00 | 0.00 | 100 | 946.5 |
| 20260905222951 | 57 | 277 | 7.8 | 11.3 | 0.00 | 0.00 | 0.00 | 100 | 946.5 |
| 20260905222548 | 57 | 268 | 6.1 | 8.7 | 0.00 | 0.00 | 0.00 | 100 | 946.5 |
| 20260905222148 | 57 | 276 | 8.7 | 12.2 | 0.00 | 0.00 | 0.00 | 100 | 946.5 |
| 20260905221748 | 58 | 276 | 7.0 | 8.7 | 0.00 | 0.00 | 0.00 | 100 | 946.5 |
| 20260905221348 | 58 | 278 | 7.8 | 10.4 | 0.00 | 0.00 | 0.00 | 100 | 946.5 |
| 20260905220948 | 58 | 279 | 7.0 | 9.6 | 0.00 | 0.00 | 0.00 | 100 | 946.4 |
| 20260905220546 | 57 | 282 | 7.8 | 10.4 | 0.00 | 0.00 | 0.00 | 100 | 946.4 |
| 20260905220146 | 57 | 282 | 7.8 | 9.6 | 0.00 | 0.00 | 0.00 | 100 | 946.4 |
| 20260905215746 | 57 | 279 | 6.1 | 7.8 | 0.00 | 0.00 | 0.00 | 100 | 946.4 |
| 20260905214946 | 57 | 280 | 6.1 | 8.7 | 0.00 | 0.00 | 0.00 | 100 | 946.4 |
| 20260905214543 | 57 | 280 | 7.0 | 8.7 | 0.00 | 0.00 | 0.00 | 100 | 946.4 |
| 20260905214142 | 57 | 281 | 7.0 | 8.7 | 0.00 | 0.00 | 0.00 | 100 | 946.4 |
| 20260905213742 | 57 | 280 | 7.0 | 8.7 | 0.00 | 0.00 | 0.00 | 100 | 946.4 |
| 20260905213342 | 58 | 278 | 6.1 | 7.8 | 0.00 | 0.00 | 0.00 | 100 | 946.4 |
| 20260905212942 | 58 | 279 | 7.0 | 8.7 | 0.00 | 0.00 | 0.00 | 100 | 946.4 |
| 20260905212539 | 58 | 276 | 6.1 | 7.8 | 0.00 | 0.00 | 0.00 | 100 | 946.3 |
| 20260905212140 | 58 | 276 | 6.1 | 7.0 | 0.00 | 0.00 | 0.00 | 100 | 946.4 |
| 20260905211736 | 58 | 273 | 6.1 | 7.8 | 0.00 | 0.00 | 0.00 | 100 | 946.4 |
| 20260905211336 | 58 | 270 | 6.1 | 7.8 | 0.00 | 0.00 | 0.00 | 100 | 946.4 |
| 20260905210936 | 58 | 272 | 6.1 | 8.7 | 0.00 | 0.00 | 0.00 | 100 | 946.4 |
| 20260905210533 | 58 | 271 | 6.1 | 7.8 | 0.00 | 0.00 | 0.00 | 100 | 946.4 |
| 20260905210133 | 58 | 274 | 7.0 | 9.6 | 0.00 | 0.00 | 0.00 | 100 | 946.4 |
| 20260905205733 | 58 | 276 | 7.8 | 9.6 | 0.00 | 0.00 | 0.00 | 100 | 946.4 |
| 20260905205334 | 58 | 273 | 6.1 | 8.7 | 0.00 | 0.00 | 0.00 | 100 | 946.3 |
| 20260905204934 | 58 | 275 | 6.1 | 7.0 | 0.00 | 0.00 | 0.00 | 100 | 946.3 |
| 20260905204531 | 59 | 277 | 7.0 | 7.8 | 0.00 | 0.00 | 0.00 | 100 | 946.3 |
| 20260905204131 | 59 | 280 | 6.1 | 8.7 | 0.00 | 0.00 | 0.00 | 100 | 946.4 |
| 20260905203722 | 59 | 278 | 7.0 | 8.7 | 0.00 | 0.00 | 0.00 | 100 | 946.3 |
| 20260905203322 | 59 | 279 | 7.0 | 9.6 | 0.00 | 0.00 | 0.00 | 100 | 946.3 |
| 20260905202922 | 59 | 278 | 6.1 | 7.8 | 0.00 | 0.00 | 0.00 | 100 | 946.3 |
| 20260905202519 | 59 | 278 | 5.2 | 7.8 | 0.00 | 0.00 | 0.00 | 100 | 946.2 |
| 20260905202119 | 59 | 279 | 6.1 | 7.8 | 0.00 | 0.00 | 0.00 | 100 | 946.3 |
| 20260905201719 | 59 | 280 | 6.1 | 7.8 | 0.00 | 0.00 | 0.00 | 100 | 946.3 |
| 20260905201320 | 59 | 282 | 6.1 | 7.8 | 0.00 | 0.00 | 0.00 | 100 | 946.3 |
| 20260905200920 | 59 | 283 | 7.0 | 8.7 | 0.00 | 0.00 | 0.00 | 100 | 946.4 |
| 20260905200517 | 59 | 283 | 6.1 | 7.0 | 0.00 | 0.00 | 0.00 | 100 | 946.3 |
| 20260905200117 | 59 | 282 | 6.1 | 7.0 | 0.00 | 0.00 | 0.00 | 100 | 946.3 |
| 20260905195717 | 59 | 282 | 6.1 | 7.8 | 0.00 | 0.00 | 0.00 | 100 | 946.2 |
| 20260905195317 | 59 | 283 | 4.3 | 7.0 | 0.00 | 0.00 | 0.00 | 100 | 946.1 |
| 20260905194917 | 59 | 278 | 3.5 | 4.3 | 0.00 | 0.00 | 0.00 | 100 | 946.0 |
| 20260905194514 | 59 | 281 | 4.3 | 6.1 | 0.00 | 0.00 | 0.00 | 100 | 946.1 |
| 20260905194114 | 59 | 281 | 4.3 | 6.1 | 0.00 | 0.00 | 0.00 | 100 | 946.0 |
| 20260905193714 | 60 | 278 | 5.2 | 7.0 | 0.00 | 0.00 | 0.00 | 100 | 946.0 |
| 20260905193314 | 60 | 280 | 6.1 | 7.8 | 0.00 | 0.00 | 0.00 | 100 | 946.0 |
| 20260905192914 | 60 | 277 | 6.1 | 7.0 | 0.00 | 0.00 | 0.00 | 100 | 946.0 |
| 20260905192511 | 60 | 278 | 5.2 | 6.1 | 0.00 | 0.00 | 0.00 | 100 | 945.9 |
| 20260905192111 | 60 | 270 | 3.5 | 4.3 | 0.00 | 0.00 | 0.00 | 100 | 945.9 |
| 20260905191711 | 60 | 276 | 3.5 | 4.3 | 0.00 | 0.00 | 0.00 | 100 | 946.0 |
| 20260905191308 | 60 | 278 | 5.2 | 6.1 | 0.00 | 0.00 | 0.00 | 100 | 946.0 |
| 20260905190908 | 60 | 283 | 5.2 | 6.1 | 0.00 | 0.00 | 0.00 | 100 | 946.0 |
| 20260905190505 | 60 | 283 | 5.2 | 6.1 | 0.00 | 0.00 | 0.00 | 100 | 945.9 |
| 20260905190105 | 60 | 283 | 5.2 | 6.1 | 0.00 | 0.00 | 0.00 | 100 | 945.8 |
| 20260905185705 | 60 | 283 | 5.2 | 7.0 | 0.00 | 0.00 | 0.00 | 100 | 945.9 |
| 20260905185306 | 61 | 285 | 4.3 | 6.1 | 0.00 | 0.00 | 0.00 | 100 | 945.9 |
| 20260905184905 | 61 | 287 | 3.5 | 7.0 | 0.00 | 0.00 | 0.00 | 100 | 945.9 |
| 20260905184502 | 61 | 288 | 5.2 | 8.7 | 0.00 | 0.00 | 0.00 | 100 | 946.0 |
| 20260905184102 | 61 | 287 | 5.2 | 8.7 | 0.00 | 0.00 | 0.00 | 100 | 945.9 |
| 20260905183702 | 61 | 297 | 5.2 | 10.4 | 0.00 | 0.00 | 0.00 | 100 | 945.9 |
| 20260905183302 | 61 | 304 | 5.2 | 7.8 | 0.00 | 0.00 | 0.00 | 100 | 945.9 |
| 20260905182902 | 61 | 308 | 6.1 | 10.4 | 0.00 | 0.00 | 0.00 | 100 | 945.9 |
| 20260905182459 | 61 | 305 | 4.3 | 7.0 | 0.00 | 0.00 | 0.00 | 100 | 945.9 |
| 20260905182059 | 61 | 308 | 5.2 | 9.6 | 0.00 | 0.00 | 0.00 | 100 | 945.8 |
| 20260905181659 | 61 | 310 | 4.3 | 7.8 | 0.00 | 0.00 | 0.00 | 100 | 945.8 |
| 20260905181259 | 61 | 307 | 7.0 | 10.4 | 0.00 | 0.00 | 0.00 | 100 | 945.8 |
| 20260905180900 | 61 | 307 | 5.2 | 7.8 | 0.00 | 0.00 | 0.00 | 100 | 945.8 |
| 20260905180445 | 61 | 311 | 5.2 | 11.3 | 0.00 | 0.00 | 0.00 | 100 | 945.8 |
| 20260905180045 | 61 | 302 | 7.0 | 11.3 | 0.00 | 0.00 | 0.00 | 100 | 945.7 |
| 20260905175245 | 61 | 309 | 7.0 | 12.2 | 0.00 | 0.00 | 0.00 | 100 | 945.6 |
| 20260905174845 | 61 | 305 | 7.0 | 8.7 | 0.00 | 0.00 | 0.00 | 100 | 945.6 |
| 20260905174443 | 61 | 302 | 6.1 | 8.7 | 0.00 | 0.00 | 0.00 | 100 | 945.5 |
| 20260905174043 | 61 | 308 | 7.8 | 11.3 | 0.00 | 0.00 | 0.00 | 100 | 945.5 |
| 20260905173643 | 61 | 307 | 7.8 | 10.4 | 0.00 | 0.00 | 0.00 | 100 | 945.4 |
| 20260905173243 | 61 | 308 | 7.0 | 11.3 | 0.00 | 0.00 | 0.00 | 100 | 945.3 |
| 20260905172843 | 61 | 309 | 7.0 | 12.2 | 0.00 | 0.00 | 0.00 | 100 | 945.4 |
| 20260905172440 | 62 | 305 | 8.7 | 12.2 | 0.00 | 0.00 | 0.00 | 100 | 945.3 |
| 20260905172040 | 62 | 306 | 7.0 | 12.2 | 0.00 | 0.00 | 0.00 | 100 | 945.2 |
| 20260905171640 | 62 | 293 | 7.0 | 13.0 | 0.00 | 0.00 | 0.00 | 100 | 945.2 |
| 20260905171240 | 62 | 296 | 7.0 | 14.8 | 0.00 | 0.00 | 0.00 | 100 | 945.2 |
| 20260905170837 | 63 | 304 | 5.2 | 7.0 | 0.00 | 0.00 | 0.00 | 100 | 945.2 |
| 20260905170434 | 63 | 307 | 5.2 | 8.7 | 0.00 | 0.00 | 0.00 | 100 | 945.2 |
| 20260905170034 | 63 | 295 | 5.2 | 8.7 | 0.00 | 0.00 | 0.00 | 100 | 945.2 |
| 20260905165634 | 64 | 294 | 4.3 | 8.7 | 0.00 | 0.00 | 0.00 | 100 | 945.1 |
| 20260905165234 | 64 | 302 | 2.6 | 4.3 | 0.00 | 0.00 | 0.00 | 100 | 945.1 |
| 20260905164834 | 64 | 289 | 4.3 | 7.8 | 0.00 | 0.00 | 0.00 | 100 | 945.1 |
| 20260905164431 | 65 | 286 | 4.3 | 7.8 | 0.00 | 0.00 | 0.00 | 100 | 945.1 |
| 20260905164031 | 65 | 282 | 6.1 | 7.8 | 0.00 | 0.00 | 0.00 | 100 | 945.0 |
| 20260905163631 | 65 | 284 | 6.1 | 9.6 | 0.00 | 0.00 | 0.00 | 100 | 944.9 |
| 20260905163231 | 66 | 284 | 4.3 | 7.0 | 0.00 | 0.00 | 0.00 | 100 | 944.9 |
| 20260905162831 | 66 | 278 | 6.1 | 8.7 | 0.00 | 0.00 | 0.00 | 100 | 944.9 |
| 20260905162428 | 65 | 287 | 5.2 | 8.7 | 0.00 | 0.00 | 0.00 | 100 | 944.9 |
| 20260905162028 | 65 | 287 | 5.2 | 7.8 | 0.00 | 0.00 | 0.00 | 100 | 944.8 |
| 20260905161628 | 65 | 288 | 5.2 | 8.7 | 0.00 | 0.00 | 0.00 | 100 | 944.9 |
| 20260905161228 | 65 | 285 | 5.2 | 8.7 | 0.00 | 0.00 | 0.00 | 100 | 944.8 |
| 20260905160828 | 65 | 285 | 6.1 | 7.0 | 0.00 | 0.00 | 0.00 | 100 | 944.8 |
| 20260905160425 | 66 | 285 | 6.1 | 8.7 | 0.00 | 0.00 | 0.00 | 100 | 944.7 |
| 20260905160025 | 66 | 281 | 4.3 | 7.8 | 0.00 | 0.00 | 0.00 | 100 | 944.7 |
| 20260905155625 | 67 | 279 | 4.3 | 7.8 | 0.00 | 0.00 | 0.00 | 100 | 944.7 |
| 20260905155225 | 68 | 286 | 7.0 | 9.6 | 0.00 | 0.00 | 0.00 | 100 | 944.6 |
| 20260905154825 | 69 | 282 | 7.0 | 13.0 | 0.00 | 0.00 | 0.00 | 100 | 944.6 |
| 20260905154422 | 69 | 282 | 8.7 | 13.0 | 0.00 | 0.00 | 0.00 | 100 | 944.6 |
| 20260905154022 | 69 | 282 | 7.0 | 11.3 | 0.00 | 0.00 | 0.00 | 100 | 944.6 |
| 20260905153622 | 69 | 282 | 7.0 | 10.4 | 0.00 | 0.00 | 0.00 | 100 | 944.6 |
| 20260905153222 | 70 | 282 | 9.6 | 13.9 | 0.00 | 0.00 | 0.00 | 100 | 944.6 |
| 20260905152813 | 70 | 276 | 7.0 | 12.2 | 0.00 | 0.00 | 0.00 | 100 | 944.6 |
| 20260905152410 | 71 | 280 | 9.6 | 13.0 | 0.00 | 0.00 | 0.00 | 100 | 944.6 |
| 20260905152010 | 71 | 281 | 9.6 | 18.2 | 0.00 | 0.00 | 0.00 | 100 | 944.7 |
| 20260905151211 | 71 | 278 | 8.7 | 15.6 | 0.00 | 0.00 | 0.00 | 100 | 944.7 |
| 20260905150811 | 72 | 285 | 12.2 | 15.6 | 0.00 | 0.00 | 0.00 | 100 | 944.7 |
| 20260905150404 | 72 | 284 | 7.8 | 11.3 | 0.00 | 0.00 | 0.00 | 100 | 944.7 |
| 20260905150004 | 72 | 279 | 5.2 | 10.4 | 0.00 | 0.00 | 0.00 | 100 | 944.8 |
| 20260905145604 | 72 | 280 | 7.8 | 14.8 | 0.00 | 0.00 | 0.00 | 100 | 944.7 |
| 20260905145204 | 73 | 276 | 4.3 | 8.7 | 0.00 | 0.00 | 0.00 | 100 | 944.7 |
| 20260905144804 | 73 | 279 | 7.0 | 12.2 | 0.00 | 0.00 | 0.00 | 100 | 944.8 |
| 20260905144401 | 71 | 282 | 6.1 | 8.7 | 0.00 | 0.00 | 0.00 | 100 | 944.8 |
| 20260905144001 | 70 | 279 | 7.0 | 8.7 | 0.00 | 0.00 | 0.00 | 100 | 944.7 |
| 20260905143601 | 69 | 291 | 7.0 | 12.2 | 0.00 | 0.00 | 0.00 | 100 | 944.7 |
| 20260905143201 | 69 | 288 | 4.3 | 12.2 | 0.00 | 0.00 | 0.00 | 100 | 944.8 |
| 20260905142801 | 69 | 301 | 4.3 | 8.7 | 0.00 | 0.00 | 0.00 | 100 | 944.8 |
| 20260905142358 | 71 | 292 | 4.3 | 7.0 | 0.00 | 0.00 | 0.00 | 100 | 944.8 |
| 20260905141958 | 71 | 280 | 3.5 | 8.7 | 0.00 | 0.00 | 0.00 | 100 | 944.8 |
| 20260905141559 | 69 | 296 | 3.5 | 7.8 | 0.00 | 0.00 | 0.00 | 100 | 944.8 |
| 20260905141158 | 68 | 294 | 2.6 | 5.2 | 0.00 | 0.00 | 0.00 | 100 | 944.7 |
| 20260905140759 | 69 | 296 | 4.3 | 7.8 | 0.00 | 0.00 | 0.00 | 100 | 944.7 |
| 20260905140356 | 70 | 296 | 4.3 | 10.4 | 0.00 | 0.00 | 0.00 | 100 | 944.7 |
| 20260905135956 | 71 | 287 | 4.3 | 7.0 | 0.00 | 0.00 | 0.00 | 100 | 944.7 |
| 20260905135556 | 72 | 287 | 5.2 | 12.2 | 0.00 | 0.00 | 0.00 | 100 | 944.7 |
| 20260905135156 | 73 | 280 | 8.7 | 13.9 | 0.00 | 0.00 | 0.00 | 100 | 944.7 |
| 20260905134756 | 73 | 287 | 5.2 | 8.7 | 0.00 | 0.00 | 0.00 | 100 | 944.6 |
| 20260905134353 | 73 | 273 | 6.1 | 13.0 | 0.00 | 0.00 | 0.00 | 100 | 944.6 |
| 20260905133953 | 72 | 283 | 2.6 | 7.8 | 0.00 | 0.00 | 0.00 | 100 | 944.6 |
| 20260905133553 | 71 | 279 | 7.0 | 12.2 | 0.00 | 0.00 | 0.00 | 100 | 944.7 |
| 20260905133153 | 71 | 285 | 7.0 | 13.9 | 0.00 | 0.00 | 0.00 | 100 | 944.7 |
| 20260905132753 | 70 | 281 | 7.0 | 12.2 | 0.00 | 0.00 | 0.00 | 100 | 944.7 |
| 20260905132350 | 70 | 282 | 11.3 | 18.2 | 0.00 | 0.00 | 0.00 | 100 | 944.7 |
| 20260905131950 | 69 | 282 | 10.4 | 16.5 | 0.00 | 0.00 | 0.00 | 100 | 944.6 |
| 20260905131550 | 68 | 276 | 11.3 | 14.8 | 0.00 | 0.00 | 0.00 | 100 | 944.6 |
| 20260905131150 | 66 | 272 | 7.8 | 13.0 | 0.00 | 0.00 | 0.00 | 100 | 944.7 |
| 20260905130750 | 67 | 276 | 8.7 | 13.0 | 0.00 | 0.00 | 0.00 | 100 | 944.7 |
| 20260905130347 | 68 | 272 | 11.3 | 15.6 | 0.00 | 0.00 | 0.00 | 100 | 944.6 |
| 20260905125944 | 68 | 279 | 13.0 | 19.1 | 0.00 | 0.00 | 0.00 | 100 | 944.7 |
| 20260905125544 | 68 | 273 | 12.2 | 20.0 | 0.00 | 0.00 | 0.00 | 100 | 944.7 |
| 20260905125132 | 68 | 281 | 11.3 | 16.5 | 0.00 | 0.00 | 0.00 | 100 | 944.7 |
| 20260905124732 | 70 | 280 | 7.0 | 11.3 | 0.00 | 0.00 | 0.00 | 100 | 944.7 |
| 20260905124329 | 70 | 287 | 5.2 | 9.6 | 0.00 | 0.00 | 0.00 | 100 | 944.7 |
| 20260905123929 | 71 | 270 | 10.4 | 16.5 | 0.00 | 0.00 | 0.00 | 100 | 944.7 |
| 20260905123530 | 71 | 276 | 10.4 | 18.2 | 0.00 | 0.00 | 0.00 | 100 | 944.7 |
| 20260905123130 | 69 | 290 | 4.3 | 8.7 | 0.00 | 0.00 | 0.00 | 100 | 944.7 |
| 20260905122730 | 68 | 285 | 5.2 | 10.4 | 0.00 | 0.00 | 0.00 | 100 | 944.8 |
| 20260905122327 | 67 | 296 | 4.3 | 11.3 | 0.00 | 0.00 | 0.00 | 100 | 944.8 |
| 20260905121927 | 67 | 297 | 3.5 | 7.0 | 0.00 | 0.00 | 0.00 | 100 | 944.9 |
| 20260905121527 | 67 | 295 | 1.7 | 4.3 | 0.00 | 0.00 | 0.00 | 100 | 944.9 |
| 20260905121127 | 68 | 277 | 3.5 | 5.2 | 0.00 | 0.00 | 0.00 | 100 | 944.9 |
| 20260905120727 | 69 | 275 | 7.0 | 13.0 | 0.00 | 0.00 | 0.00 | 100 | 944.9 |
| 20260905120324 | 69 | 279 | 6.1 | 9.6 | 0.00 | 0.00 | 0.00 | 100 | 944.9 |
| 20260905115924 | 69 | 276 | 8.7 | 13.0 | 0.00 | 0.00 | 0.00 | 100 | 944.8 |
| 20260905115524 | 68 | 275 | 9.6 | 15.6 | 0.00 | 0.00 | 0.00 | 100 | 944.9 |
| 20260905115124 | 67 | 276 | 7.8 | 12.2 | 0.00 | 0.00 | 0.00 | 100 | 944.9 |
| 20260905114724 | 65 | 292 | 3.5 | 7.8 | 0.00 | 0.00 | 0.00 | 100 | 945.0 |
| 20260905114321 | 64 | 287 | 3.5 | 7.0 | 0.00 | 0.00 | 0.00 | 100 | 945.1 |
| 20260905113921 | 64 | 279 | 4.3 | 7.8 | 0.00 | 0.00 | 0.00 | 100 | 945.2 |
| 20260905113521 | 62 | 278 | 7.0 | 9.6 | 0.00 | 0.00 | 0.00 | 100 | 945.2 |
| 20260905112721 | 63 | 279 | 11.3 | 16.5 | 0.00 | 0.00 | 0.00 | 100 | 945.2 |
| 20260905112319 | 64 | 266 | 9.6 | 12.2 | 0.00 | 0.00 | 0.00 | 100 | 945.2 |
| 20260905111918 | 64 | 274 | 8.7 | 12.2 | 0.00 | 0.00 | 0.00 | 100 | 945.2 |
| 20260905111518 | 64 | 272 | 12.2 | 17.4 | 0.00 | 0.00 | 0.00 | 100 | 945.2 |
| 20260905111118 | 63 | 274 | 11.3 | 17.4 | 0.00 | 0.00 | 0.00 | 100 | 945.2 |
| 20260905110718 | 62 | 270 | 9.6 | 15.6 | 0.00 | 0.00 | 0.00 | 100 | 945.2 |
| 20260905110315 | 61 | 254 | 10.4 | 13.0 | 0.00 | 0.00 | 0.00 | 100 | 945.1 |
| 20260905105916 | 60 | 261 | 10.4 | 15.6 | 0.00 | 0.00 | 0.00 | 100 | 945.1 |
| 20260905105512 | 58 | 258 | 9.6 | 12.2 | 0.00 | 0.00 | 0.00 | 100 | 945.1 |
| 20260905105112 | 57 | 263 | 9.6 | 12.2 | 0.00 | 0.00 | 0.00 | 100 | 945.0 |
| 20260905104712 | 57 | 257 | 8.7 | 11.3 | 0.00 | 0.00 | 0.00 | 100 | 945.1 |
| 20260905104309 | 56 | 267 | 7.8 | 10.4 | 0.00 | 0.00 | 0.00 | 100 | 945.3 |
| 20260905103909 | 56 | 261 | 7.8 | 11.3 | 0.00 | 0.00 | 0.00 | 100 | 945.3 |
| 20260905103509 | 56 | 263 | 7.0 | 10.4 | 0.00 | 0.00 | 0.00 | 100 | 945.2 |
| 20260905103109 | 56 | 269 | 7.0 | 9.6 | 0.00 | 0.00 | 0.00 | 100 | 945.2 |
| 20260905102709 | 56 | 261 | 5.2 | 7.8 | 0.00 | 0.00 | 0.00 | 100 | 945.1 |
| 20260905102306 | 56 | 264 | 7.8 | 10.4 | 0.00 | 0.00 | 0.00 | 100 | 945.1 |
| 20260905101907 | 56 | 268 | 7.0 | 7.8 | 0.00 | 0.00 | 0.00 | 100 | 945.2 |
| 20260905101458 | 57 | 252 | 8.7 | 12.2 | 0.00 | 0.00 | 0.00 | 100 | 945.0 |
| 20260905101058 | 57 | 255 | 5.2 | 7.0 | 0.00 | 0.00 | 0.00 | 100 | 944.8 |
| 20260905100658 | 57 | 245 | 7.8 | 10.4 | 0.00 | 0.00 | 0.00 | 100 | 944.7 |
| 20260905100255 | 57 | 249 | 5.2 | 7.8 | 0.00 | 0.00 | 0.00 | 100 | 944.7 |
| 20260905095855 | 57 | 251 | 6.1 | 7.8 | 0.00 | 0.00 | 0.00 | 100 | 944.9 |
| 20260905095455 | 57 | 266 | 7.0 | 11.3 | 0.00 | 0.00 | 0.00 | 100 | 945.0 |
| 20260905095055 | 57 | 268 | 7.8 | 11.3 | 0.00 | 0.00 | 0.00 | 100 | 945.1 |
| 20260905094655 | 58 | 268 | 8.7 | 12.2 | 0.00 | 0.00 | 0.00 | 100 | 944.9 |
| 20260905094252 | 58 | 256 | 6.1 | 9.6 | 0.00 | 0.00 | 0.00 | 100 | 944.9 |
| 20260905093852 | 58 | 252 | 9.6 | 13.0 | 0.00 | 0.00 | 0.00 | 100 | 944.9 |
| 20260905093452 | 58 | 252 | 8.7 | 12.2 | 0.00 | 0.00 | 0.00 | 100 | 944.9 |
| 20260905093053 | 58 | 255 | 8.7 | 12.2 | 0.00 | 0.00 | 0.00 | 100 | 944.7 |
| 20260905092653 | 57 | 250 | 7.0 | 10.4 | 0.00 | 0.00 | 0.00 | 100 | 944.7 |
| 20260905092250 | 57 | 258 | 7.0 | 11.3 | 0.00 | 0.00 | 0.00 | 100 | 944.7 |
| 20260905091850 | 57 | 256 | 8.7 | 10.4 | 0.00 | 0.00 | 0.00 | 100 | 944.8 |
| 20260905091450 | 57 | 268 | 7.8 | 10.4 | 0.00 | 0.00 | 0.00 | 100 | 944.8 |
| 20260905091049 | 57 | 278 | 7.8 | 12.2 | 0.00 | 0.00 | 0.00 | 100 | 944.6 |
| 20260905090649 | 58 | 268 | 9.6 | 14.8 | 0.00 | 0.00 | 0.00 | 100 | 944.7 |
| 20260905090246 | 58 | 272 | 10.4 | 15.6 | 0.00 | 0.00 | 0.00 | 100 | 944.9 |
| 20260905085846 | 58 | 278 | 7.0 | 10.4 | 0.00 | 0.00 | 0.00 | 100 | 944.7 |
| 20260905085447 | 57 | 284 | 7.0 | 13.9 | 0.00 | 0.00 | 0.00 | 100 | 944.6 |
| 20260905085043 | 57 | 288 | 4.3 | 9.6 | 0.00 | 0.00 | 0.00 | 100 | 944.5 |
| 20260905084643 | 57 | 278 | 6.1 | 12.2 | 0.00 | 0.00 | 0.00 | 100 | 944.7 |
| 20260905084241 | 57 | 282 | 5.2 | 7.8 | 0.00 | 0.00 | 0.00 | 100 | 944.9 |
| 20260905083841 | 57 | 286 | 8.7 | 15.6 | 0.00 | 0.00 | 0.00 | 100 | 944.8 |
| 20260905083441 | 56 | 288 | 7.8 | 13.9 | 0.00 | 0.00 | 0.00 | 100 | 944.6 |
| 20260905083041 | 57 | 283 | 7.8 | 11.3 | 0.00 | 0.00 | 0.00 | 100 | 944.6 |
| 20260905082641 | 57 | 289 | 7.0 | 13.9 | 0.00 | 0.00 | 0.00 | 100 | 944.5 |
| 20260905082238 | 58 | 292 | 7.8 | 13.0 | 0.00 | 0.00 | 0.00 | 100 | 944.6 |
| 20260905081838 | 58 | 286 | 10.4 | 19.1 | 0.00 | 0.00 | 0.00 | 100 | 944.4 |
| 20260905081438 | 59 | 287 | 5.2 | 10.4 | 0.00 | 0.00 | 0.00 | 100 | 944.3 |
| 20260905081038 | 59 | 285 | 7.0 | 11.3 | 0.00 | 0.00 | 0.00 | 100 | 944.4 |
| 20260905080638 | 59 | 285 | 7.0 | 11.3 | 0.00 | 0.00 | 0.00 | 100 | 944.3 |
| 20260905080235 | 59 | 281 | 7.0 | 17.4 | 0.00 | 0.00 | 0.00 | 100 | 944.3 |
| 20260905075835 | 59 | 278 | 5.2 | 10.4 | 0.00 | 0.00 | 0.00 | 100 | 944.1 |
| 20260905075435 | 59 | 287 | 4.3 | 9.6 | 0.00 | 0.00 | 0.00 | 100 | 944.0 |
| 20260905075035 | 59 | 293 | 3.5 | 6.1 | 0.00 | 0.00 | 0.00 | 100 | 943.7 |
| 20260905074635 | 59 | 285 | 8.7 | 14.8 | 0.00 | 0.00 | 0.00 | 100 | 943.6 |
| 20260905074221 | 59 | 281 | 10.4 | 17.4 | 0.00 | 0.00 | 0.00 | 100 | 943.9 |
| 20260905073821 | 60 | 278 | 7.8 | 17.4 | 0.00 | 0.00 | 0.00 | 100 | 943.8 |
| 20260905073021 | 60 | 279 | 7.8 | 11.3 | 0.00 | 0.00 | 0.00 | 100 | 943.7 |
| 20260905072621 | 60 | 288 | 11.3 | 19.1 | 0.00 | 0.00 | 0.00 | 100 | 943.7 |
| 20260905072218 | 60 | 283 | 7.8 | 13.9 | 0.00 | 0.00 | 0.00 | 100 | 943.6 |
| 20260905071818 | 60 | 283 | 7.0 | 15.6 | 0.00 | 0.00 | 0.00 | 100 | 943.6 |
| 20260905071418 | 60 | 280 | 7.0 | 13.9 | 0.00 | 0.00 | 0.00 | 100 | 943.7 |
| 20260905071018 | 60 | 288 | 7.8 | 13.9 | 0.00 | 0.00 | 0.00 | 100 | 943.7 |
| 20260905070619 | 60 | 286 | 7.0 | 13.0 | 0.00 | 0.00 | 0.00 | 100 | 943.8 |
| 20260905070216 | 60 | 279 | 7.8 | 13.9 | 0.00 | 0.00 | 0.00 | 100 | 943.7 |
| 20260905065815 | 60 | 287 | 7.8 | 11.3 | 0.00 | 0.00 | 0.00 | 100 | 943.7 |
| 20260905065415 | 60 | 279 | 8.7 | 15.6 | 0.00 | 0.00 | 0.00 | 100 | 943.7 |
| 20260905065015 | 60 | 269 | 10.4 | 15.6 | 0.00 | 0.00 | 0.00 | 100 | 943.6 |
| 20260905064612 | 60 | 276 | 10.4 | 16.5 | 0.00 | 0.00 | 0.00 | 100 | 943.5 |
| 20260905064209 | 60 | 278 | 7.8 | 14.8 | 0.00 | 0.00 | 0.00 | 100 | 943.3 |
| 20260905063809 | 60 | 287 | 4.3 | 8.7 | 0.00 | 0.00 | 0.00 | 100 | 943.3 |
| 20260905063410 | 60 | 285 | 7.0 | 15.6 | 0.00 | 0.00 | 0.00 | 100 | 943.2 |
| 20260905063009 | 60 | 287 | 5.2 | 7.8 | 0.00 | 0.00 | 0.00 | 100 | 943.2 |
| 20260905062609 | 59 | 285 | 7.0 | 16.5 | 0.00 | 0.00 | 0.00 | 100 | 943.3 |
| 20260905062206 | 59 | 283 | 2.6 | 5.2 | 0.00 | 0.00 | 0.00 | 100 | 943.2 |
| 20260905061806 | 59 | 280 | 4.3 | 7.0 | 0.00 | 0.00 | 0.00 | 100 | 943.1 |
| 20260905061406 | 59 | 260 | 4.3 | 7.0 | 0.00 | 0.00 | 0.00 | 100 | 943.1 |
| 20260905061007 | 59 | 270 | 4.3 | 5.2 | 0.00 | 0.00 | 0.00 | 100 | 943.2 |
| 20260905060607 | 59 | 243 | 6.1 | 7.8 | 0.00 | 0.00 | 0.00 | 100 | 943.1 |
| 20260905060204 | 59 | 240 | 7.0 | 8.7 | 0.00 | 0.00 | 0.00 | 100 | 942.9 |
| 20260905055804 | 59 | 244 | 6.1 | 7.0 | 0.00 | 0.00 | 0.00 | 100 | 942.8 |
| 20260905055404 | 59 | 241 | 5.2 | 7.0 | 0.00 | 0.00 | 0.00 | 100 | 942.7 |
| 20260905055004 | 59 | 239 | 6.1 | 7.8 | 0.00 | 0.00 | 0.00 | 100 | 942.7 |
| 20260905054604 | 59 | 238 | 6.1 | 8.7 | 0.00 | 0.00 | 0.00 | 100 | 942.7 |
| 20260905054201 | 59 | 233 | 7.8 | 8.7 | 0.00 | 0.00 | 0.00 | 100 | 942.5 |
| 20260905053801 | 59 | 238 | 6.1 | 7.0 | 0.00 | 0.00 | 0.00 | 100 | 942.4 |
| 20260905053401 | 59 | 233 | 8.7 | 9.6 | 0.00 | 0.00 | 0.00 | 100 | 942.4 |
| 20260905053001 | 59 | 232 | 8.7 | 10.4 | 0.00 | 0.00 | 0.00 | 100 | 942.2 |
| 20260905052600 | 59 | 236 | 8.7 | 10.4 | 0.00 | 0.00 | 0.00 | 100 | 942.0 |
| 20260905052157 | 59 | 233 | 7.0 | 9.6 | 0.00 | 0.00 | 0.00 | 100 | 942.1 |
| 20260905051757 | 59 | 238 | 7.0 | 7.8 | 0.00 | 0.00 | 0.00 | 100 | 942.3 |
| 20260905051358 | 59 | 241 | 5.2 | 6.1 | 0.00 | 0.00 | 0.00 | 100 | 942.3 |
| 20260905050958 | 59 | 251 | 4.3 | 5.2 | 0.00 | 0.00 | 0.00 | 100 | 942.2 |
| 20260905050549 | 59 | 244 | 6.1 | 7.0 | 0.00 | 0.00 | 0.00 | 100 | 942.2 |
| 20260905050146 | 59 | 241 | 7.0 | 8.7 | 0.00 | 0.00 | 0.00 | 100 | 942.2 |
| 20260905045746 | 59 | 243 | 7.0 | 7.8 | 0.00 | 0.00 | 0.00 | 100 | 942.2 |
| 20260905044946 | 59 | 245 | 7.0 | 8.7 | 0.00 | 0.00 | 0.00 | 100 | 942.1 |
| 20260905044546 | 59 | 243 | 7.0 | 8.7 | 0.00 | 0.00 | 0.00 | 100 | 942.2 |
| 20260905044140 | 60 | 242 | 7.8 | 9.6 | 0.00 | 0.00 | 0.00 | 100 | 942.2 |
| 20260905043740 | 60 | 247 | 8.7 | 12.2 | 0.00 | 0.00 | 0.00 | 100 | 942.1 |
| 20260905043340 | 60 | 267 | 7.8 | 13.0 | 0.00 | 0.00 | 0.00 | 100 | 942.1 |
| 20260905042940 | 60 | 279 | 5.2 | 10.4 | 0.00 | 0.00 | 0.00 | 100 | 942.3 |
| 20260905042540 | 60 | 280 | 7.0 | 11.3 | 0.00 | 0.00 | 0.00 | 100 | 942.3 |
| 20260905042137 | 60 | 275 | 8.7 | 11.3 | 0.00 | 0.00 | 0.00 | 100 | 942.4 |
| 20260905041737 | 60 | 273 | 7.8 | 9.6 | 0.00 | 0.00 | 0.00 | 100 | 942.4 |
| 20260905041337 | 61 | 278 | 7.0 | 9.6 | 0.00 | 0.00 | 0.00 | 100 | 942.4 |
| 20260905040937 | 61 | 273 | 8.7 | 13.9 | 0.00 | 0.00 | 0.00 | 100 | 942.6 |
| 20260905040537 | 61 | 278 | 7.8 | 11.3 | 0.00 | 0.00 | 0.00 | 100 | 942.8 |
| 20260905040134 | 62 | 282 | 5.2 | 8.7 | 0.00 | 0.00 | 0.00 | 100 | 942.6 |
| 20260905035734 | 62 | 306 | 3.5 | 7.8 | 0.00 | 0.00 | 0.00 | 100 | 942.7 |
| 20260905035334 | 62 | 288 | 3.5 | 7.8 | 0.00 | 0.00 | 0.00 | 100 | 942.9 |
| 20260905034934 | 62 | 292 | 8.7 | 16.5 | 0.00 | 0.00 | 0.00 | 100 | 942.9 |
| 20260905034534 | 62 | 294 | 5.2 | 10.4 | 0.00 | 0.00 | 0.00 | 100 | 942.9 |
| 20260905034131 | 62 | 290 | 5.2 | 8.7 | 0.00 | 0.00 | 0.00 | 100 | 942.8 |
| 20260905033731 | 62 | 285 | 7.8 | 13.9 | 0.00 | 0.00 | 0.00 | 100 | 942.7 |
| 20260905033331 | 62 | 288 | 7.0 | 12.2 | 0.00 | 0.00 | 0.00 | 100 | 942.6 |
| 20260905032931 | 63 | 288 | 7.0 | 13.0 | 0.00 | 0.00 | 0.00 | 100 | 942.5 |
| 20260905032532 | 63 | 284 | 7.8 | 13.0 | 0.00 | 0.00 | 0.00 | 100 | 942.5 |
| 20260905032129 | 63 | 292 | 5.2 | 8.7 | 0.00 | 0.00 | 0.00 | 100 | 942.3 |
| 20260905031729 | 63 | 294 | 6.1 | 11.3 | 0.00 | 0.00 | 0.00 | 100 | 942.4 |
| 20260905031329 | 63 | 285 | 8.7 | 13.0 | 0.00 | 0.00 | 0.00 | 100 | 942.5 |
| 20260905030929 | 64 | 284 | 10.4 | 20.9 | 0.00 | 0.00 | 0.00 | 100 | 942.5 |
| 20260905030529 | 64 | 288 | 9.6 | 17.4 | 0.00 | 0.00 | 0.00 | 100 | 942.5 |
| 20260905030126 | 64 | 282 | 7.8 | 14.8 | 0.00 | 0.00 | 0.00 | 100 | 942.4 |
| 20260905025726 | 64 | 292 | 6.1 | 10.4 | 0.00 | 0.00 | 0.00 | 100 | 942.1 |
| 20260905025326 | 64 | 293 | 6.1 | 10.4 | 0.00 | 0.00 | 0.00 | 100 | 942.0 |
| 20260905024926 | 64 | 304 | 4.3 | 11.3 | 0.00 | 0.00 | 0.00 | 100 | 941.8 |
| 20260905024525 | 64 | 306 | 5.2 | 8.7 | 0.00 | 0.00 | 0.00 | 100 | 941.7 |
| 20260905024122 | 64 | 310 | 4.3 | 7.0 | 0.00 | 0.00 | 0.00 | 100 | 941.6 |
| 20260905023719 | 65 | 300 | 5.2 | 12.2 | 0.00 | 0.00 | 0.00 | 100 | 941.5 |
| 20260905023319 | 65 | 300 | 7.0 | 13.0 | 0.00 | 0.00 | 0.00 | 100 | 941.5 |
| 20260905022908 | 65 | 298 | 7.0 | 10.4 | 0.00 | 0.00 | 0.00 | 100 | 941.5 |
| 20260905022508 | 65 | 293 | 8.7 | 12.2 | 0.00 | 0.00 | 0.00 | 100 | 941.4 |
| 20260905022105 | 65 | 291 | 6.1 | 12.2 | 0.00 | 0.00 | 0.00 | 100 | 941.2 |
| 20260905021705 | 66 | 302 | 5.2 | 11.3 | 0.00 | 0.00 | 0.00 | 100 | 941.1 |
| 20260905021305 | 66 | 296 | 5.2 | 9.6 | 0.00 | 0.00 | 0.00 | 100 | 941.0 |
| 20260905020905 | 66 | 286 | 8.7 | 12.2 | 0.00 | 0.00 | 0.00 | 100 | 940.9 |
| 20260905020505 | 66 | 287 | 9.6 | 14.8 | 0.00 | 0.00 | 0.00 | 100 | 940.8 |
| 20260905015703 | 67 | 275 | 15.6 | 21.7 | 0.00 | 0.00 | 0.00 | 100 | 940.4 |
| 20260905015306 | 67 | 276 | 14.8 | 20.0 | 0.00 | 0.00 | 0.00 | 100 | 940.2 |
| 20260905014903 | 67 | 263 | 11.3 | 17.4 | 0.00 | 0.00 | 0.00 | 100 | 940.1 |
| 20260905014503 | 67 | 279 | 8.7 | 10.4 | 0.00 | 0.00 | 0.00 | 100 | 940.2 |
| 20260905014100 | 67 | 267 | 10.4 | 15.6 | 0.00 | 0.00 | 0.00 | 100 | 940.0 |
| 20260905013700 | 67 | 244 | 15.6 | 18.2 | 0.00 | 0.00 | 0.00 | 100 | 939.7 |
| 20260905013300 | 66 | 247 | 13.9 | 18.2 | 0.00 | 0.00 | 0.00 | 100 | 939.6 |
| 20260905012900 | 66 | 244 | 14.8 | 20.0 | 0.00 | 0.00 | 0.00 | 100 | 939.5 |
| 20260905012500 | 66 | 238 | 11.3 | 14.8 | 0.00 | 0.00 | 0.00 | 100 | 939.6 |
| 20260905012057 | 66 | 238 | 11.3 | 15.6 | 0.00 | 0.00 | 0.00 | 100 | 939.5 |
| 20260905011657 | 66 | 238 | 10.4 | 14.8 | 0.00 | 0.00 | 0.00 | 100 | 939.5 |
| 20260905011257 | 66 | 237 | 12.2 | 16.5 | 0.00 | 0.00 | 0.00 | 100 | 939.6 |
| 20260905010457 | 66 | 237 | 13.0 | 14.8 | 0.00 | 0.00 | 0.00 | 100 | 939.6 |